TJS-9

Last updated on Thu Oct 30 2025 00:02:52 GMT+0000 (Coordinated Universal Time)

1 50574U 21135A 25302.53377932 -.00000288 00000+0 00000+0 0 9991 2 50574 0.0831 78.9998 0002900 218.1894 70.3498 1.00273228 14112
UTC large
Height (km)
Speed (km/s)
/
Latitude / Longitude
Inclination (degrees)
Orbital Period (minutes)
Azimuth
Elevation
Range (km)
Doppler Factor

Next 0 passes for location: London (51.5072 / 0.1276)

Sorry there are no passes over London.